Tekamah, NE

8:51 AM CDT on September 30, 2016 (GMT -0500)
Tekamah

Weather History for KTQE - October, 2013

Change the Weather History Date:

Thursday, October 24, 2013

  Actual Average Record
Temperature  
Mean Temperature 39 °F -  
Max Temperature 52 °F 62 °F 84 °F (1952)
Min Temperature 26 °F 38 °F 17 °F (1999)
Degree Days  
Heating Degree Days 26    
Moisture  
Dew Point 26 °F    
Average Humidity 65    
Maximum Humidity 89    
Minimum Humidity 33    
Precipitation  
Precipitation 0.00 in - - ()
Sea Level Pressure  
Sea Level Pressure 30.36 in    
Wind  
Wind Speed 7 mph (NW)    
Max Wind Speed 12 mph    
Max Gust Speed 21 mph    
Visibility 10 miles    
Events      
Averages and records for this station are not official NWS values.
T = Trace of Precipitation, MM = Missing Value Source: NWS Daily Summary

Daily Weather History Graph

Daily Weather History Graph

Search for Another Location

Airport or City:

Trip Planner

Search our weather history database for the weather conditions in past years. The results will help you decide how hot, cold, wet, or windy it might be!

Date:

Astronomy

Oct. 24, 2013 Rise Set
Actual Time 7:47 AM CDT 6:29 PM CDT
Civil Twilight 7:19 AM CDT 6:57 PM CDT
Nautical Twilight 6:46 AM CDT 7:30 PM CDT
Astronomical Twilight 6:14 AM CDT 8:02 PM CDT
Moon 10:53 PM CDT (10/24) 12:51 PM CDT (10/24)
Length of Visible Light 11h 38m
Length of Day
10h 41m
Waning Gibbous, 71% of the Moon is Illuminated
Oct 24
Waning Gibbous
Oct 26
Last Quarter
Nov 3
New
Nov 9
First Quarter
Nov 17
Full

Hourly Weather History & Observations

Time (CDT) Temp. Windchill Dew Point Humidity Pressure Visibility Wind Dir Wind Speed Gust Speed Precip Events Conditions
12:54 AM 39.9 °F 34.5 °F 28.9 °F 65% 30.25 in 10.0 mi NNW 8.1 mph - N/A   Overcast
1:54 AM 32.0 °F 25.6 °F 28.0 °F 85% 30.26 in 10.0 mi WNW 6.9 mph - N/A   Clear
2:54 AM 35.1 °F 28.6 °F 30.0 °F 82% 30.28 in 10.0 mi WNW 8.1 mph - N/A   Clear
3:54 AM 36.0 °F 28.5 °F 28.9 °F 76% 30.28 in 10.0 mi NW 10.4 mph - N/A   Mostly Cloudy
4:54 AM 34.0 °F 27.2 °F 28.9 °F 82% 30.30 in 10.0 mi NW 8.1 mph - N/A   Clear
5:54 AM 33.1 °F 26.9 °F 28.0 °F 82% 30.32 in 10.0 mi NW 6.9 mph - N/A   Clear
6:54 AM 32.0 °F 24.8 °F 28.0 °F 85% 30.33 in 10.0 mi NW 8.1 mph - N/A   Clear
7:54 AM 30.9 °F 25.2 °F 27.0 °F 85% 30.35 in 10.0 mi NNW 5.8 mph - N/A   Clear
8:54 AM 35.1 °F 29.3 °F 28.0 °F 76% 30.38 in 10.0 mi NNW 6.9 mph - N/A   Clear
9:54 AM 39.9 °F 33.9 °F 28.9 °F 65% 30.39 in 10.0 mi NNW 9.2 mph - N/A   Clear
10:54 AM 45.0 °F 40.1 °F 27.0 °F 49% 30.40 in 10.0 mi NNW 9.2 mph - N/A   Clear
11:54 AM 48.0 °F - 23.0 °F 37% 30.40 in 10.0 mi NW 11.5 mph 20.7 mph N/A   Partly Cloudy
12:54 PM 48.9 °F - 23.0 °F 36% 30.40 in 10.0 mi WNW 10.4 mph - N/A   Mostly Cloudy
1:54 PM 50.0 °F - 23.0 °F 35% 30.38 in 10.0 mi NNW 8.1 mph 16.1 mph N/A   Partly Cloudy
2:54 PM 51.1 °F - 23.0 °F 33% 30.36 in 10.0 mi NNW 11.5 mph 18.4 mph N/A   Partly Cloudy
3:54 PM 51.1 °F - 23.0 °F 33% 30.36 in 10.0 mi WNW 6.9 mph - N/A   Partly Cloudy
4:54 PM 50.0 °F - 21.9 °F 33% 30.35 in 10.0 mi West 5.8 mph - N/A   Partly Cloudy
5:54 PM 48.0 °F - 23.0 °F 37% 30.36 in 10.0 mi NW 4.6 mph - N/A   Clear
6:54 PM 37.0 °F - 26.1 °F 65% 30.38 in 6.0 mi Calm Calm - N/A   Haze
7:54 PM 32.0 °F - 26.1 °F 79% 30.39 in 10.0 mi Calm Calm - N/A   Clear
8:54 PM 30.0 °F 26.5 °F 25.0 °F 82% 30.40 in 10.0 mi WSW 3.5 mph - N/A   Clear
9:54 PM 27.0 °F - 23.0 °F 85% 30.40 in 10.0 mi Calm Calm - N/A   Clear
10:54 PM 27.0 °F 21.6 °F 24.1 °F 89% 30.40 in 10.0 mi SSE 4.6 mph - N/A   Clear
11:54 PM 26.1 °F 21.9 °F 21.9 °F 84% 30.41 in 10.0 mi SW 3.5 mph - N/A   Clear